Regional Weather Roundup
Issued by NWS

Home | Current Version | Previous Version | Text Only | Print | Product List | Glossary Off
Versions: 1 2 3 4 5 6 7 8 9 10 11 12 13 14 15 16 17 18 19 20 21 22 23 24 25 26 27 28 29 30 31 32 33 34 35 36 37 38 39 40 41 42 43 44 45 46 47 48 49 50

000
ASUS43 KIND 280109
RWRIN

WEATHER ROUNDUP FOR INDIANA
NATIONAL WEATHER SERVICE INDIANAPOLIS IN
900 PM EDT WED AUG 27 2014

NOTE: "FAIR" INDICATES FEW OR NO CLOUDS BELOW 12,000 FEET WITH NO
SIGNIFICANT WEATHER AND/OR OBSTRUCTIONS TO VISIBILITY.

* - STATION DOES NOT REPORT WEATHER SUCH AS PRECIPITATION OR FOG.

+ - STATION NOT QUALITY CONTROLLED BY THE NATIONAL WEATHER SERVICE.
    USE DATA WITH CAUTION...ESPECIALLY DEWPOINT AND RELATIVE
    HUMIDITY OBSERVATIONS.

INZ001>003-010>013-019-020-280200-
NORTHWEST INDIANA

CITY           SKY/WX    TMP DP  RH WIND       PRES   REMARKS
GARY /AIRPORT/ MOCLDY    70  59  68 NE7       30.11F
KNOX *+        PTCLDY    65  59  80 N8        30.10S
LA PORTE +     MOCLDY    65  59  80 N6        30.12S
MICHIGAN CITY+ CLOUDY    63  59  88 CALM      30.12R
MONTICELLO +   PTCLDY    71  64  79 N6        30.08R
RENSSELAER +   PTCLDY    68  64  88 NE3       30.10R
VALPARAISO     MOCLDY    65  58  78 NE3       30.10F

$$

LMZ046-743>745-280200-
SOUTHERN LAKE MICHIGAN

STATION/POSITION TIME  TEMP WIND        PRES
                       AIR  DIR/SP/G
                 (UTC) (F)  (DEG/KT/KT) (MB)
MICHIGAN CITY    0100   70   20/ 15/ 16   N/A

$$

INZ004-005-014>016-021>024-280200-
NORTH CENTRAL INDIANA

CITY           SKY/WX    TMP DP  RH WIND       PRES   REMARKS
ELKHART        CLEAR     68  59  73 N3        30.12
GOSHEN         CLOUDY    70  62  76 N6        30.10R
LOGANSPORT +   CLEAR     70  63  78 N10       30.10R
PERU/GRISSOM   CLEAR     74  67  79 N5        30.08R
ROCHESTER +    PTCLDY    70  61  73 CALM      30.10R
SOUTH BEND     CLOUDY    67  59  75 N7        30.11S
WARSAW +       MOCLDY    70  61  73 N5        30.10R

$$

INZ006>009-017-018-025>027-280200-
NORTHEAST INDIANA

CITY           SKY/WX    TMP DP  RH WIND       PRES   REMARKS
ANGOLA *+      CLEAR     70  61  73 N3        30.10S
AUBURN +       MOCLDY    72  59  64 N6        30.10R
FORT WAYNE     MOCLDY    70  61  73 N7        30.08R
HUNTINGTON +   CLEAR     71  63  74 N5        30.08R

$$

INZ028-029-035-036-043>045-051>053-280200-
WEST CENTRAL INDIANA

CITY           SKY/WX    TMP DP  RH WIND       PRES   REMARKS
GREENCASTLE +  MOCLDY    77  72  83 N6        30.08R
LAFAYETTE      PTCLDY    73  64  73 N8        30.08R
TERRE HAUTE    CLOUDY    77  72  84 N5        30.07R

$$

INZ030>032-037>040-046>048-054>057-064-065-280200-
CENTRAL INDIANA

CITY           SKY/WX    TMP DP  RH WIND       PRES   REMARKS
CP ATTERBURY + MOCLDY    79  70  73 NE6       30.06R
COLUMBUS       PTCLDY    77  73  88 N3        30.05R
FRANKFORT +    PTCLDY    73  67  82 N3        30.09S
INDIANAPOLIS   MOCLDY    79  68  69 N10       30.06R
-EAGLE CREEK   PTCLDY    78  68  71 N10       30.06R
KOKOMO *+      CLEAR     72  64  78 NE5       30.08S
MARION +       CLEAR     70  63  79 CALM      30.09R
MT COMFORT *+  PTCLDY    75  73  94 N7        30.08R
SHELBYVILLE    PTCLDY    78  71  79 N5        30.06R
ZIONSVILLE +   PTCLDY    73  66  78 N6        30.09R

$$

INZ033-034-041-042-049-050-058-059-280200-
EAST CENTRAL INDIANA

CITY           SKY/WX    TMP DP  RH WIND       PRES   REMARKS
MUNCIE         CLEAR     70  65  84 N3        30.08R

$$

INZ060-061-067>069-081>083-085>088-280200-
SOUTHWEST INDIANA

CITY           SKY/WX    TMP DP  RH WIND       PRES   REMARKS
EVANSVILLE     PTCLDY    85  69  58 N8        30.05R
WASHINGTON +   CLOUDY    76  75  95 CALM      30.04R

$$

INZ062-063-066-070>080-084-089>092-280200-
SOUTH CENTRAL AND SOUTHEAST INDIANA

CITY           SKY/WX    TMP DP  RH WIND       PRES   REMARKS
BLOOMINGTON    PTCLDY    78  74  87 VRB3      30.06R
SEYMOUR +      PTCLDY    81  64  57 CALM      30.04R

$$



USA.gov is the U.S. government's official web portal to all federal, state and local government web resources and services.